When you browse on this site, cookies collect data to enhance your experience and personalize the content and advertising you see.
Visit our Privacy Policy to learn more. By continuing to use the site, you agree to this use of cookies and data.
  • In Hungary
  • List of Countries
  • For 7 days
  • Water Temperature
  • Weather Map
  • News
  • Weather Widgets
  • user-avatar
    Login

    Hourly Weather Santa Cruz

    Today, 20 February, Thursday

    Time Temperature Precipitation Wind Pressure Humidity
    00:00 +27°C° 0 mm 2 mps 721 mmHg 83%
    01:00 +26°C° 0 mm 2 mps 720 mmHg 85%
    02:00 +26°C° 0 mm 1 mps 720 mmHg 87%
    03:00 +26°C° 0 mm 1 mps 720 mmHg 88%
    04:00 +25°C° 0 mm 1 mps 720 mmHg 88%
    05:00 +25°C° 0 mm 1 mps 720 mmHg 89%
    06:00 +26°C° 0.4 mm 1 mps 720 mmHg 87%
    07:00 +26°C° 0.4 mm 2 mps 721 mmHg 86%
    08:00 +27°C° 0.4 mm 2 mps 722 mmHg 84%
    09:00 +27°C° 1.7 mm 3 mps 722 mmHg 84%
    10:00 +27°C° 1.7 mm 3 mps 722 mmHg 85%
    11:00 +28°C° 1.7 mm 3 mps 722 mmHg 86%
    12:00 +28°C° 1.6 mm 3 mps 722 mmHg 83%
    13:00 +29°C° 1.6 mm 4 mps 721 mmHg 79%
    14:00 +30°C° 1.6 mm 4 mps 720 mmHg 76%
    15:00 +29°C° 1.3 mm 4 mps 720 mmHg 79%
    16:00 +28°C° 1.3 mm 4 mps 720 mmHg 82%
    17:00 +27°C° 1.3 mm 4 mps 720 mmHg 84%
    18:00 +26°C° 0.6 mm 4 mps 720 mmHg 85%
    19:00 +26°C° 0.6 mm 4 mps 721 mmHg 85%
    20:00 +25°C° 0.6 mm 4 mps 721 mmHg 86%
    21:00 +25°C° 0.3 mm 4 mps 722 mmHg 85%
    22:00 +25°C° 0.3 mm 4 mps 722 mmHg 85%
    23:00 +25°C° 0.3 mm 4 mps 723 mmHg 84%

    Tomorrow, 21 February, Friday

    Time Temperature Precipitation Wind Pressure Humidity
    00:00 +25°C° 0.8 mm 4 mps 723 mmHg 87%
    01:00 +25°C° 0.8 mm 4 mps 722 mmHg 90%
    02:00 +23°C° 0.8 mm 4 mps 722 mmHg 93%
    09:00 +23°C° 1 mm 7 mps 725 mmHg 76%
    10:00 +22°C° 1 mm 7 mps 725 mmHg 84%
    11:00 +21°C° 1 mm 6 mps 725 mmHg 92%
    12:00 +21°C° 0.4 mm 6 mps 725 mmHg 86%
    13:00 +22°C° 0.4 mm 7 mps 724 mmHg 81%
    14:00 +23°C° 0.4 mm 7 mps 724 mmHg 75%
    15:00 +24°C° 0 mm 7 mps 723 mmHg 70%
    16:00 +26°C° 0 mm 7 mps 723 mmHg 64%
    17:00 +27°C° 0 mm 8 mps 723 mmHg 58%
    18:00 +26°C° 0 mm 7 mps 723 mmHg 57%
    19:00 +26°C° 0 mm 7 mps 724 mmHg 56%
    20:00 +26°C° 0 mm 6 mps 724 mmHg 54%
    21:00 +26°C° 0 mm 6 mps 725 mmHg 52%
    22:00 +26°C° 0 mm 6 mps 725 mmHg 50%
    23:00 +26°C° 0 mm 6 mps 725 mmHg 48%

    Day after tomorrow, 22 February, Saturday

    Time Temperature Precipitation Wind Pressure Humidity
    00:00 +26°C° 0.1 mm 6 mps 725 mmHg 51%
    01:00 +24°C° 0.1 mm 6 mps 725 mmHg 54%
    02:00 +25°C° 0.1 mm 5 mps 725 mmHg 57%
    03:00 +24°C° 0.1 mm 6 mps 725 mmHg 55%
    04:00 +24°C° 0.1 mm 7 mps 725 mmHg 53%
    05:00 +24°C° 0.1 mm 7 mps 725 mmHg 51%
    06:00 +23°C° 0.1 mm 7 mps 726 mmHg 50%
    07:00 +23°C° 0.1 mm 6 mps 726 mmHg 49%
    08:00 +22°C° 0.1 mm 6 mps 726 mmHg 48%
    09:00 +23°C° 0 mm 6 mps 726 mmHg 45%
    10:00 +24°C° 0 mm 6 mps 727 mmHg 41%
    11:00 +26°C° 0 mm 7 mps 727 mmHg 37%
    12:00 +26°C° 0 mm 6 mps 726 mmHg 39%
    13:00 +26°C° 0 mm 5 mps 725 mmHg 40%
    14:00 +26°C° 0 mm 4 mps 724 mmHg 41%
    15:00 +27°C° 0 mm 3 mps 724 mmHg 43%
    16:00 +27°C° 0 mm 2 mps 723 mmHg 44%
    17:00 +27°C° 0 mm 2 mps 722 mmHg 46%
    18:00 +26°C° 0 mm 1 mps 723 mmHg 47%
    19:00 +26°C° 0 mm 1 mps 723 mmHg 48%
    20:00 +25°C° 0 mm 1 mps 724 mmHg 49%
    21:00 +25°C° 0 mm 1 mps 724 mmHg 48%
    22:00 +25°C° 0 mm 1 mps 724 mmHg 47%
    23:00 +25°C° 0 mm 2 mps 725 mmHg 46%

    23 February, Sunday

    Time Temperature Precipitation Wind Pressure Humidity
    00:00 +25°C° 0 mm 2 mps 724 mmHg 46%
    01:00 +24°C° 0 mm 2 mps 724 mmHg 47%
    02:00 +24°C° 0 mm 3 mps 724 mmHg 47%
    03:00 +23°C° 0 mm 2 mps 723 mmHg 49%
    04:00 +23°C° 0 mm 2 mps 723 mmHg 50%
    05:00 +21°C° 0 mm 2 mps 723 mmHg 52%
    06:00 +23°C° 0 mm 2 mps 724 mmHg 51%
    07:00 +24°C° 0 mm 3 mps 724 mmHg 50%
    08:00 +25°C° 0 mm 3 mps 725 mmHg 49%
    09:00 +27°C° 0 mm 3 mps 725 mmHg 43%
    10:00 +29°C° 0 mm 3 mps 725 mmHg 38%
    11:00 +31°C° 0 mm 3 mps 725 mmHg 32%
    12:00 +31°C° 0 mm 3 mps 724 mmHg 32%
    13:00 +31°C° 0 mm 2 mps 723 mmHg 32%
    14:00 +32°C° 0 mm 2 mps 722 mmHg 32%
    15:00 +32°C° 0 mm 2 mps 722 mmHg 34%
    16:00 +31°C° 0 mm 2 mps 721 mmHg 36%
    17:00 +31°C° 0 mm 2 mps 720 mmHg 38%
    18:00 +29°C° 0 mm 2 mps 720 mmHg 45%
    19:00 +26°C° 0 mm 2 mps 721 mmHg 51%
    20:00 +24°C° 0 mm 2 mps 721 mmHg 57%
    21:00 +24°C° 0 mm 2 mps 721 mmHg 57%
    22:00 +24°C° 0 mm 2 mps 722 mmHg 57%
    23:00 +24°C° 0 mm 1 mps 722 mmHg 56%

    24 February, Monday

    Time Temperature Precipitation Wind Pressure Humidity
    00:00 +24°C° 0 mm 2 mps 722 mmHg 55%
    01:00 +24°C° 0 mm 2 mps 722 mmHg 54%
    02:00 +24°C° 0 mm 2 mps 722 mmHg 52%
    03:00 +24°C° 0 mm 2 mps 722 mmHg 54%
    04:00 +23°C° 0 mm 2 mps 722 mmHg 55%
    05:00 +23°C° 0 mm 2 mps 721 mmHg 57%
    06:00 +23°C° 0 mm 2 mps 722 mmHg 58%
    07:00 +24°C° 0 mm 2 mps 722 mmHg 59%
    08:00 +24°C° 0 mm 2 mps 722 mmHg 61%
    09:00 +27°C° 0 mm 2 mps 722 mmHg 55%
    10:00 +29°C° 0 mm 3 mps 722 mmHg 49%
    11:00 +33°C° 0 mm 4 mps 722 mmHg 43%
    12:00 +34°C° 0 mm 4 mps 721 mmHg 41%
    13:00 +35°C° 0 mm 5 mps 720 mmHg 40%
    14:00 +35°C° 0 mm 5 mps 720 mmHg 38%
    15:00 +35°C° 0 mm 5 mps 719 mmHg 40%
    16:00 +34°C° 0 mm 5 mps 718 mmHg 42%
    17:00 +34°C° 0 mm 5 mps 717 mmHg 44%
    18:00 +32°C° 0 mm 4 mps 718 mmHg 49%
    19:00 +30°C° 0 mm 4 mps 718 mmHg 54%
    20:00 +28°C° 0 mm 3 mps 719 mmHg 58%
    21:00 +28°C° 0 mm 3 mps 719 mmHg 59%
    22:00 +27°C° 0 mm 3 mps 720 mmHg 60%
    23:00 +27°C° 0 mm 4 mps 721 mmHg 61%

    25 February, Tuesday

    Time Temperature Precipitation Wind Pressure Humidity
    00:00 +27°C° 0 mm 4 mps 720 mmHg 63%
    01:00 +26°C° 0 mm 4 mps 720 mmHg 65%
    02:00 +26°C° 0 mm 4 mps 720 mmHg 66%
    03:00 +26°C° 0 mm 5 mps 720 mmHg 67%
    04:00 +26°C° 0 mm 5 mps 719 mmHg 69%
    05:00 +25°C° 0 mm 5 mps 719 mmHg 70%
    06:00 +26°C° 0 mm 5 mps 720 mmHg 69%
    07:00 +27°C° 0 mm 6 mps 720 mmHg 68%
    08:00 +27°C° 0 mm 6 mps 720 mmHg 67%
    09:00 +29°C° 0 mm 7 mps 720 mmHg 61%
    10:00 +32°C° 0 mm 7 mps 720 mmHg 56%
    11:00 +34°C° 0 mm 8 mps 720 mmHg 50%
    12:00 +34°C° 0 mm 8 mps 719 mmHg 48%
    13:00 +35°C° 0 mm 7 mps 718 mmHg 46%
    14:00 +36°C° 0 mm 7 mps 717 mmHg 44%
    15:00 +35°C° 0 mm 7 mps 717 mmHg 46%
    16:00 +35°C° 0 mm 7 mps 716 mmHg 48%
    17:00 +34°C° 0 mm 6 mps 716 mmHg 50%
    18:00 +33°C° 0 mm 6 mps 717 mmHg 56%
    19:00 +32°C° 0 mm 5 mps 717 mmHg 62%
    20:00 +29°C° 0 mm 5 mps 718 mmHg 68%
    21:00 +29°C° 0 mm 5 mps 718 mmHg 71%
    22:00 +28°C° 0 mm 5 mps 719 mmHg 73%
    23:00 +27°C° 0 mm 6 mps 719 mmHg 75%
    Show more